Hourly Data Report for November 07, 2020

VICTORIA UNIVERSITY CS
BRITISH COLUMBIA
Current Station Operator: ECCC - MSC

48°27'25.200" N
123°18'16.600" W
60.10 m
1018598
71783
WYJ

Download Data

Hourly Data (November 2020)
Hourly Data Report for November 7, 2020
TIME
LST
Temp Definition
°C
Dew Point Definition
°C
Rel Hum Definition
%
Precip. Amount Definition
mm

Wind Dir Definition
10's deg

Wind Spd Definition
km/h
Visibility Definition
km
Stn Press Definition
kPa
Hmdx Definition


Wind Chill Definition


Weather Definition


00:00 2.6 0.1 83 0.0 33 4   100.31     LegendNANA
01:00 4.0 -0.3 73 0.0 32 4   100.28     LegendNANA
02:00 3.9 -1.0 70 0.0 32 5   100.27     LegendNANA
03:00 3.2 -1.5 71 0.0 33 4   100.22     LegendNANA
04:00 2.6 -1.1 77 0.0 33 5   100.21     LegendNANA
05:00 1.5 -1.5 81 0.0 31 5   100.20     LegendNANA
06:00 3.6 -0.5 74 0.0 1 4   100.17     LegendNANA
07:00 1.9 0.1 88 0.0 25 3   100.14     LegendNANA
08:00 2.8 0.2 83 0.0 32 6   100.17     LegendNANA
09:00 4.9 -0.6 68 0.0 32 7   100.15     LegendNANA
10:00 5.5 -1.0 63 0.0 31 12   100.12     LegendNANA
11:00 5.1 1.2 76 0.0 31 13   100.11     LegendNANA
12:00 5.9 0.8 70 0.0 33 12   100.05     LegendNANA
13:00 6.5 1.7 71 0.0 36 15   100.04     LegendNANA
14:00 8.1 1.1 61 0.0 35 12   100.08     LegendNANA
15:00 7.7 -0.4 56 0.0 33 12   100.09     LegendNANA
16:00 7.4 0.4 61 0.0 33 3   100.11     LegendNANA
17:00 7.8 -1.8 51 0.0 31 13   100.11     LegendNANA
18:00 7.6 -1.1 54 0.0 31 15   100.10     LegendNANA
19:00 6.7 1.8 71 0.0 4 2   100.15     LegendNANA
20:00 6.0 1.3 72 0.0 36 6   100.20     LegendNANA
21:00 6.2 1.3 71 0.0 36 7   100.24     LegendNANA
22:00 5.7 -2.7 54 0.0 1 7   100.28     LegendNANA
23:00 5.9 -5.2 45 0.0 32 8   100.29     LegendNANA

Notes on Data Quality.

Legend

  • E = Estimated
  • M = Missing
  • NA = Not Available*
  • [empty] = Indicates an unobserved value
Date modified: